Location: *
(43.4667°N, 11.6833°E)
Time: 02:26:36
(UTC+00:00)

Cosmos 1633 Rocket - Pass Details

Date: 19 July 2019
Orbit: 608 x 623 km, 82.5° (Epoch: 21 August)

Event Time Altitude Azimuth Distance (km) Brightness Sun altitude
Exits shadow 21:12:17 36° 103° (ESE) 972 3.7 -19.4°
Maximum altitude 21:12:38 37° 91° (E) 960 3.7 -19.5°
Drops below altitude 10° 21:16:38 10° 25° (NNE) 1,970 6.1 -19.8°
Sets 21:18:58 0° 17° (NNE) 2,880 7.1 -20.0°
